Location: Home
(42.5358°N, 72.7383°W)
Time: 12:42:58
(UTC-05:00)

Tiros 1 - Pass Details

Date: 07 December 2021
Orbit: 629 x 664 km, 48.4° (Epoch: 26 January)

Event Time Altitude Azimuth Distance (km) Brightness Sun altitude
Rises 19:56:15 0° 284° (WNW) 2,929 11.4 -39.4°
Reaches altitude 10° 19:58:41 10° 292° (WNW) 2,025 10.3 -39.9°
Enters shadow 19:58:50 11° 293° (WNW) 1,977 10.2 -39.9°
Maximum altitude 20:03:05 40° 3° (N) 948 - -40.7°
Drops below altitude 10° 20:07:32 10° 73° (ENE) 2,045 - -41.5°
Sets 20:10:00 0° 81° (E) 2,961 - -41.9°
